QPF
0.04 0.03 0.02 0.03 0.03 0.05 0.07 0.09 0.09 0.08 0.07 0.05 0.04 0.03 0.02 0.02 0.03 0.03 0.05 0.07 0.08 0.09 0.09 0.10 0.10 0.10 0.10 0.11 0.12 0.13 0.13 0.13 0.14 0.14 0.13 0.13 0.12 0.11
0.04 0.03 0.02 0.03 0.03 0.04 0.04 0.06 0.08 0.09 0.07 0.04 0.03 0.03 0.02 0.01 0.03 0.03 0.04 0.05 0.06 0.07 0.09 0.10 0.10 0.10 0.09 0.09 0.09 0.11 0.12 0.11 0.11 0.12 0.12 0.12 0.11 0.11
0.04 0.03 0.02 0.03 0.03 0.04 0.04 0.04 0.05 0.07 0.06 0.04 0.03 0.03 0.03 0.02 0.03 0.03 0.04 0.05 0.05 0.05 0.05 0.05 0.06 0.07 0.07 0.08 0.09 0.09 0.09 0.09 0.09 0.10 0.12 0.13 0.14 0.13
0.04 0.05 0.04 0.03 0.03 0.04 0.04 0.04 0.04 0.05 0.06 0.05 0.04 0.04 0.04 0.03 0.03 0.03 0.03 0.04 0.05 0.06 0.05 0.05 0.06 0.07 0.07 0.08 0.09 0.09 0.08 0.07 0.07 0.08 0.10 0.11 0.11 0.11
0.04 0.05 0.06 0.05 0.05 0.05 0.04 0.04 0.05 0.06 0.06 0.04 0.04 0.03 0.04 0.03 0.03 0.04 0.04 0.04 0.04 0.05 0.05 0.06 0.06 0.07 0.07 0.08 0.08 0.08 0.07 0.07 0.07 0.08 0.08 0.09 0.10 0.10
0.05 0.06 0.05 0.04 0.04 0.05 0.04 0.05 0.07 0.07 0.06 0.04 0.04 0.04 0.04 0.04 0.04 0.04 0.05 0.05 0.05 0.04 0.04 0.04 0.04 0.04 0.05 0.05 0.06 0.07 0.07 0.08 0.09 0.09 0.09 0.09 0.09 0.09
0.04 0.06 0.05 0.03 0.03 0.03 0.03 0.03 0.05 0.08 0.09 0.07 0.05 0.05 0.05 0.05 0.05 0.05 0.05 0.06 0.06 0.04 0.03 0.03 0.03 0.02 0.03 0.04 0.05 0.06 0.06 0.06 0.07 0.07 0.07 0.06 0.06 0.05
0.07 0.07 0.07 0.05 0.04 0.02 0.02 0.02 0.03 0.06 0.09 0.09 0.07 0.06 0.06 0.05 0.06 0.06 0.05 0.06 0.07 0.05 0.03 0.03 0.02 0.02 0.03 0.03 0.04 0.04 0.03 0.03 0.03 0.03 0.02 0.02 0.02 0.02
0.08 0.08 0.07 0.06 0.05 0.04 0.03 0.03 0.04 0.05 0.07 0.08 0.08 0.07 0.06 0.06 0.06 0.07 0.05 0.05 0.06 0.07 0.05 0.04 0.03 0.02 0.02 0.02 0.02 0.02 0.02 0.02 0.02 0.02 0.02 0.02 0.02 0.02
0.04 0.05 0.07 0.06 0.04 0.05 0.05 0.04 0.04 0.05 0.05 0.07 0.08 0.07 0.05 0.05 0.06 0.05 0.03 0.03 0.03 0.05 0.06 0.05 0.04 0.03 0.02 0.02 0.02 0.02 0.02 0.02 0.02 0.02 0.02 0.02 0.02 0.01
0.03 0.03 0.04 0.04 0.04 0.06 0.08 0.07 0.04 0.04 0.04 0.05 0.07 0.05 0.04 0.04 0.03 0.03 0.04 0.04 0.03 0.03 0.05 0.05 0.03 0.02 0.02 0.02 0.01 0.01 0.01 0.01 0.01 0.01 0.01 0.01 0.01 0.00
0.03 0.03 0.03 0.03 0.03 0.05 0.08 0.07 0.05 0.04 0.04 0.05 0.04 0.03 0.03 0.02 0.02 0.03 0.04 0.04 0.04 0.03 0.03 0.03 0.03 0.02 0.03 0.02 0.01 0.01 0.00 0.00 0.00 0.00 0.00 0.00 0.00 0.00
0.02 0.03 0.03 0.03 0.03 0.04 0.05 0.04 0.03 0.04 0.05 0.05 0.04 0.04 0.04 0.03 0.02 0.03 0.03 0.02 0.03 0.02 0.01 0.02 0.03 0.02 0.02 0.02 0.01 0.01 0.01 0.01 0.00 0.00 0.00 0.00 0.00 0.00
0.02 0.02 0.01 0.02 0.02 0.03 0.03 0.02 0.02 0.02 0.03 0.03 0.03 0.03 0.03 0.03 0.03 0.03 0.03 0.02 0.02 0.02 0.01 0.01 0.02 0.02 0.01 0.02 0.01 0.00 0.00 0.00 0.01 0.01 0.01 0.00 0.00 0.00
0.02 0.02 0.01 0.01 0.02 0.03 0.02 0.01 0.02 0.02 0.03 0.02 0.02 0.02 0.02 0.02 0.02 0.02 0.01 0.02 0.02 0.01 0.00 0.01 0.01 0.01 0.01 0.01 0.01 0.00 0.00 0.00 0.00 0.00 0.00 0.01 0.01 0.01
0.03 0.03 0.02 0.02 0.02 0.02 0.02 0.02 0.02 0.02 0.02 0.02 0.02 0.02 0.01 0.01 0.02 0.02 0.01 0.01 0.01 0.01 0.00 0.00 0.01 0.01 0.01 0.00 0.00 0.00 0.00 0.00 0.00 0.00 0.00 0.00 0.01 0.01
0.02 0.02 0.03 0.03 0.02 0.02 0.03 0.03 0.03 0.02 0.02 0.02 0.02 0.02 0.01 0.01 0.01 0.01 0.01 0.01 0.01 0.01 0.01 0.00 0.00 0.00 0.00 0.00 0.00 0.00 0.00 0.00 0.00 0.00 0.01 0.01 0.00 0.00
0.01 0.01 0.01 0.01 0.01 0.01 0.01 0.02 0.02 0.01 0.01 0.01 0.02 0.01 0.01 0.01 0.01 0.01 0.02 0.01 0.01 0.01 0.00 0.00 0.00 0.00 0.00 0.00 0.00 0.00 0.00 0.01 0.00 0.00 0.01 0.01 0.01 0.00
0.01 0.01 0.01 0.01 0.01 0.01 0.01 0.01 0.01 0.01 0.01 0.01 0.01 0.01 0.01 0.01 0.02 0.02 0.02 0.01 0.01 0.00 0.00 0.00 0.00 0.01 0.01 0.01 0.00 0.00 0.00 0.01 0.01 0.01 0.01 0.01 0.01 0.00
0.01 0.01 0.01 0.01 0.01 0.01 0.00 0.01 0.00 0.00 0.00 0.00 0.00 0.01 0.01 0.01 0.01 0.01 0.02 0.02 0.01 0.01 0.00 0.00 0.01 0.01 0.01 0.01 0.00 0.00 0.00 0.00 0.01 0.01 0.01 0.01 0.00 0.00
0.01 0.00 0.00 0.00 0.00 0.00 0.00 0.00 0.00 0.00 0.00 0.00 0.00 0.00 0.00 0.01 0.01 0.01 0.01 0.01 0.01 0.01 0.00 0.00 0.00 0.00 0.00 0.00 0.00 0.00 0.00 0.00 0.00 0.00 0.00 0.00 0.00 0.00
0.00 0.00 0.00 0.00 0.00 0.00 0.00 0.00 0.00 0.00 0.00 0.00 0.00 0.00 0.00 0.00 0.00 0.00 0.00 0.00 0.00 0.00 0.00 0.00 0.00 0.00 0.00 0.00 0.00 0.00 0.00 0.00 0.00 0.00 0.00 0.00 0.01 0.01
0.00 0.00 0.00 0.00 0.00 0.00 0.00 0.00 0.00 0.00 0.00 0.00 0.00 0.00 0.00 0.00 0.00 0.00 0.00 0.00 0.00 0.00 0.00 0.00 0.00 0.01 0.01 0.01 0.01 0.00 0.00 0.00 0.00 0.00 0.00 0.00 0.01 0.01
MSLP
1014.58 1014.35 1014.26 1014.31 1014.49 1014.79 1015.19 1015.70 1016.28 1016.93 1017.60 1018.26 1018.87 1019.38 1019.75 1019.97 1020.03 1019.96 1019.80 1019.63 1019.49 1019.46 1019.56 1019.81 1020.20 1020.69 1021.24 1021.80 1022.32 1022.78 1023.17 1023.50 1023.80 1024.08 1024.37 1024.68 1025.01 1025.33
1014.42 1014.13 1013.98 1013.97 1014.10 1014.37 1014.78 1015.30 1015.93 1016.65 1017.40 1018.16 1018.87 1019.49 1019.97 1020.29 1020.46 1020.50 1020.45 1020.36 1020.30 1020.32 1020.46 1020.72 1021.10 1021.56 1022.06 1022.55 1023.00 1023.37 1023.68 1023.93 1024.14 1024.33 1024.54 1024.78 1025.03 1025.30
1014.38 1014.06 1013.86 1013.80 1013.89 1014.13 1014.52 1015.05 1015.71 1016.46 1017.28 1018.11 1018.90 1019.61 1020.18 1020.61 1020.88 1021.01 1021.05 1021.04 1021.03 1021.09 1021.24 1021.49 1021.84 1022.24 1022.68 1023.10 1023.47 1023.78 1024.02 1024.21 1024.36 1024.51 1024.67 1024.85 1025.06 1025.27
1014.53 1014.17 1013.94 1013.84 1013.89 1014.10 1014.47 1014.99 1015.65 1016.42 1017.27 1018.14 1018.98 1019.74 1020.39 1020.88 1021.23 1021.43 1021.54 1021.58 1021.62 1021.69 1021.83 1022.05 1022.34 1022.69 1023.05 1023.40 1023.71 1023.97 1024.17 1024.32 1024.45 1024.57 1024.71 1024.87 1025.05 1025.23
1014.85 1014.50 1014.25 1014.12 1014.13 1014.31 1014.64 1015.13 1015.77 1016.53 1017.36 1018.23 1019.09 1019.87 1020.54 1021.08 1021.47 1021.73 1021.87 1021.95 1022.00 1022.07 1022.18 1022.35 1022.58 1022.86 1023.16 1023.45 1023.71 1023.93 1024.11 1024.26 1024.39 1024.51 1024.65 1024.80 1024.96 1025.11
1015.35 1015.00 1014.74 1014.60 1014.58 1014.72 1015.01 1015.45 1016.04 1016.74 1017.53 1018.36 1019.18 1019.95 1020.62 1021.16 1021.57 1021.84 1022.01 1022.10 1022.15 1022.20 1022.27 1022.39 1022.56 1022.77 1023.01 1023.25 1023.47 1023.67 1023.85 1024.01 1024.15 1024.29 1024.43 1024.58 1024.72 1024.85
1015.94 1015.62 1015.37 1015.22 1015.18 1015.27 1015.51 1015.89 1016.40 1017.02 1017.73 1018.48 1019.23 1019.95 1020.57 1021.09 1021.49 1021.77 1021.93 1022.02 1022.06 1022.09 1022.13 1022.21 1022.32 1022.47 1022.65 1022.84 1023.04 1023.23 1023.41 1023.57 1023.73 1023.88 1024.03 1024.17 1024.29 1024.38
1016.57 1016.27 1016.04 1015.89 1015.84 1015.89 1016.07 1016.37 1016.79 1017.31 1017.91 1018.57 1019.22 1019.85 1020.42 1020.89 1021.26 1021.52 1021.68 1021.76 1021.79 1021.80 1021.81 1021.84 1021.91 1022.01 1022.14 1022.30 1022.46 1022.64 1022.81 1022.98 1023.13 1023.29 1023.42 1023.54 1023.64 1023.69
1017.16 1016.90 1016.70 1016.56 1016.49 1016.52 1016.64 1016.87 1017.19 1017.60 1018.08 1018.62 1019.17 1019.70 1020.18 1020.60 1020.93 1021.16 1021.31 1021.38 1021.40 1021.40 1021.38 1021.38 1021.41 1021.47 1021.56 1021.67 1021.81 1021.96 1022.11 1022.26 1022.40 1022.53 1022.64 1022.73 1022.78 1022.79
1017.68 1017.46 1017.29 1017.17 1017.11 1017.11 1017.19 1017.34 1017.57 1017.88 1018.25 1018.66 1019.10 1019.53 1019.93 1020.28 1020.56 1020.77 1020.90 1020.97 1020.98 1020.96 1020.94 1020.91 1020.91 1020.93 1020.97 1021.04 1021.14 1021.25 1021.36 1021.47 1021.58 1021.66 1021.73 1021.77 1021.77 1021.72
1018.12 1017.95 1017.81 1017.71 1017.66 1017.65 1017.70 1017.80 1017.96 1018.18 1018.44 1018.75 1019.08 1019.41 1019.73 1020.01 1020.25 1020.42 1020.53 1020.59 1020.60 1020.58 1020.54 1020.50 1020.46 1020.44 1020.45 1020.47 1020.52 1020.57 1020.63 1020.69 1020.74 1020.77 1020.78 1020.75 1020.69 1020.60
1018.52 1018.38 1018.27 1018.20 1018.16 1018.15 1018.18 1018.25 1018.35 1018.50 1018.68 1018.90 1019.14 1019.38 1019.62 1019.84 1020.03 1020.17 1020.26 1020.31 1020.31 1020.28 1020.23 1020.17 1020.11 1020.06 1020.02 1020.00 1019.98 1019.98 1019.98 1019.97 1019.95 1019.92 1019.85 1019.77 1019.64 1019.49
1018.90 1018.78 1018.69 1018.64 1018.61 1018.61 1018.63 1018.68 1018.75 1018.85 1018.97 1019.12 1019.28 1019.45 1019.62 1019.78 1019.92 1020.02 1020.09 1020.12 1020.12 1020.08 1020.02 1019.94 1019.86 1019.78 1019.70 1019.63 1019.56 1019.49 1019.42 1019.34 1019.25 1019.14 1019.01 1018.85 1018.67 1018.46
1019.29 1019.17 1019.08 1019.02 1019.00 1019.00 1019.02 1019.06 1019.11 1019.18 1019.26 1019.36 1019.47 1019.58 1019.69 1019.80 1019.89 1019.95 1019.99 1020.00 1019.98 1019.93 1019.86 1019.77 1019.67 1019.56 1019.45 1019.33 1019.21 1019.09 1018.95 1018.81 1018.64 1018.46 1018.26 1018.03 1017.78 1017.51
1019.67 1019.52 1019.41 1019.34 1019.31 1019.31 1019.32 1019.36 1019.40 1019.45 1019.51 1019.57 1019.64 1019.70 1019.76 1019.81 1019.86 1019.89 1019.89 1019.88 1019.84 1019.78 1019.70 1019.60 1019.49 1019.36 1019.22 1019.07 1018.91 1018.73 1018.53 1018.31 1018.08 1017.82 1017.55 1017.25 1016.93 1016.60
1020.00 1019.80 1019.65 1019.55 1019.50 1019.48 1019.49 1019.52 1019.56 1019.61 1019.65 1019.69 1019.72 1019.75 1019.76 1019.77 1019.77 1019.76 1019.73 1019.69 1019.64 1019.57 1019.48 1019.37 1019.25 1019.11 1018.95 1018.77 1018.56 1018.33 1018.08 1017.80 1017.49 1017.16 1016.81 1016.44 1016.05 1015.66
1020.22 1019.97 1019.77 1019.62 1019.54 1019.50 1019.50 1019.53 1019.56 1019.60 1019.64 1019.66 1019.67 1019.67 1019.65 1019.62 1019.58 1019.53 1019.47 1019.41 1019.34 1019.25 1019.16 1019.05 1018.91 1018.76 1018.58 1018.37 1018.12 1017.84 1017.53 1017.18 1016.81 1016.40 1015.98 1015.53 1015.08 1014.62
1020.28 1019.97 1019.72 1019.54 1019.42 1019.36 1019.35 1019.37 1019.41 1019.45 1019.48 1019.50 1019.49 1019.46 1019.42 1019.35 1019.28 1019.20 1019.11 1019.02 1018.93 1018.83 1018.73 1018.60 1018.46 1018.28 1018.08 1017.83 1017.54 1017.21 1016.83 1016.42 1015.97 1015.49 1014.99 1014.48 1013.96 1013.45
1020.14 1019.80 1019.52 1019.30 1019.17 1019.10 1019.08 1019.10 1019.14 1019.19 1019.22 1019.23 1019.22 1019.17 1019.11 1019.02 1018.91 1018.80 1018.69 1018.57 1018.46 1018.34 1018.21 1018.07 1017.90 1017.70 1017.45 1017.16 1016.82 1016.43 1015.98 1015.50 1014.98 1014.43 1013.87 1013.30 1012.74 1012.18
1019.83 1019.48 1019.19 1018.97 1018.84 1018.77 1018.76 1018.79 1018.84 1018.89 1018.93 1018.94 1018.92 1018.87 1018.78 1018.67 1018.54 1018.41 1018.26 1018.12 1017.98 1017.83 1017.67 1017.49 1017.29 1017.04 1016.74 1016.39 1015.99 1015.53 1015.02 1014.47 1013.89 1013.29 1012.68 1012.07 1011.48 1010.91
1019.39 1019.07 1018.80 1018.60 1018.48 1018.43 1018.44 1018.49 1018.55 1018.62 1018.66 1018.68 1018.66 1018.60 1018.51 1018.38 1018.23 1018.06 1017.89 1017.72 1017.54 1017.35 1017.15 1016.92 1016.66 1016.36 1016.00 1015.58 1015.11 1014.59 1014.02 1013.41 1012.79 1012.15 1011.52 1010.91 1010.32 1009.77
1018.90 1018.62 1018.40 1018.24 1018.16 1018.14 1018.17 1018.24 1018.33 1018.41 1018.46 1018.49 1018.47 1018.41 1018.30 1018.16 1017.99 1017.81 1017.61 1017.40 1017.17 1016.94 1016.68 1016.40 1016.07 1015.70 1015.27 1014.79 1014.26 1013.68 1013.07 1012.43 1011.78 1011.15 1010.53 1009.94 1009.39 1008.88
1018.40 1018.18 1018.02 1017.91 1017.87 1017.89 1017.96 1018.05 1018.15 1018.25 1018.31 1018.34 1018.33 1018.26 1018.15 1018.00 1017.82 1017.61 1017.38 1017.14 1016.87 1016.59 1016.27 1015.92 1015.53 1015.09 1014.61 1014.07 1013.49 1012.87 1012.24 1011.60 1010.97 1010.37 1009.79 1009.27 1008.78 1008.35
Thickness
5617 5619 5620 5621 5623 5625 5626 5626 5624 5622 5621 5621 5623 5624 5625 5626 5627 5628 5628 5628 5629 5630 5630 5630 5630 5629 5628 5627 5626 5625 5623 5622 5620 5618 5616 5613 5610 5607
5609 5610 5611 5613 5615 5617 5619 5620 5621 5619 5615 5615 5615 5616 5617 5617 5618 5619 5619 5619 5620 5620 5620 5620 5619 5619 5618 5617 5616 5616 5615 5613 5611 5609 5606 5603 5601 5598
5600 5602 5603 5605 5606 5608 5610 5612 5614 5614 5610 5608 5608 5608 5609 5609 5610 5610 5611 5611 5611 5611 5611 5610 5610 5609 5609 5609 5608 5607 5606 5605 5602 5600 5597 5595 5592 5590
5591 5593 5595 5597 5598 5600 5602 5604 5606 5607 5606 5603 5601 5602 5602 5602 5603 5603 5603 5603 5602 5602 5603 5602 5602 5601 5601 5601 5600 5599 5598 5596 5594 5592 5589 5587 5584 5582
5583 5585 5587 5590 5592 5594 5595 5597 5599 5601 5600 5599 5597 5596 5596 5596 5596 5596 5597 5596 5596 5595 5595 5595 5595 5595 5595 5594 5593 5592 5591 5589 5587 5585 5582 5580 5577 5574
5576 5578 5580 5583 5585 5587 5588 5590 5592 5594 5594 5594 5593 5591 5591 5591 5591 5590 5589 5590 5590 5590 5590 5590 5589 5589 5589 5588 5587 5586 5585 5583 5581 5579 5576 5574 5571 5568
5571 5572 5574 5576 5578 5580 5581 5583 5585 5587 5588 5588 5588 5586 5585 5585 5585 5586 5585 5584 5584 5585 5585 5585 5585 5584 5583 5582 5582 5581 5580 5578 5576 5573 5571 5569 5566 5563
5566 5568 5570 5571 5572 5574 5575 5577 5579 5581 5582 5583 5583 5582 5580 5581 5581 5582 5581 5580 5579 5581 5581 5581 5582 5581 5580 5579 5579 5578 5576 5574 5572 5569 5566 5564 5561 5558
5562 5564 5567 5567 5567 5569 5571 5572 5574 5576 5578 5579 5579 5578 5577 5577 5577 5577 5578 5577 5576 5578 5578 5577 5578 5578 5578 5578 5577 5575 5573 5571 5568 5566 5563 5560 5557 5554
5559 5561 5561 5561 5563 5565 5568 5569 5570 5571 5573 5575 5575 5575 5575 5574 5574 5574 5574 5575 5575 5576 5576 5573 5575 5575 5576 5575 5574 5573 5570 5568 5566 5564 5561 5558 5555 5552
5557 5557 5558 5558 5558 5562 5565 5566 5567 5568 5569 5571 5572 5572 5572 5572 5572 5571 5571 5571 5570 5572 5574 5572 5572 5572 5573 5572 5572 5570 5569 5566 5564 5562 5560 5557 5554 5550
5555 5555 5555 5556 5556 5558 5561 5563 5564 5565 5567 5569 5569 5570 5571 5571 5570 5570 5570 5569 5569 5568 5571 5570 5570 5570 5569 5571 5571 5569 5567 5566 5564 5562 5559 5557 5553 5548
5555 5554 5553 5554 5555 5557 5559 5561 5562 5563 5565 5568 5569 5571 5571 5571 5571 5571 5571 5570 5569 5568 5571 5570 5569 5569 5568 5568 5569 5569 5568 5566 5564 5562 5560 5557 5553 5548
5552 5553 5553 5554 5555 5557 5559 5561 5563 5564 5567 5569 5570 5571 5571 5572 5572 5572 5572 5573 5572 5571 5572 5571 5570 5569 5567 5566 5567 5570 5569 5568 5566 5564 5561 5559 5555 5550
5552 5553 5554 5555 5557 5559 5561 5563 5565 5567 5569 5570 5570 5571 5572 5573 5573 5574 5574 5575 5574 5574 5574 5574 5573 5571 5569 5567 5568 5568 5568 5568 5567 5565 5562 5559 5555 5550
5553 5555 5557 5559 5561 5562 5564 5566 5568 5570 5571 5571 5572 5573 5574 5575 5575 5576 5576 5576 5575 5576 5578 5577 5576 5574 5572 5571 5569 5568 5567 5566 5567 5565 5562 5559 5555 5551
5554 5558 5562 5565 5566 5568 5570 5572 5573 5574 5574 5575 5575 5575 5576 5577 5578 5579 5578 5578 5577 5577 5578 5579 5580 5578 5577 5574 5570 5569 5569 5567 5566 5564 5561 5557 5555 5551
5557 5562 5567 5571 5573 5574 5575 5576 5578 5578 5578 5579 5579 5579 5580 5580 5580 5581 5581 5581 5579 5580 5580 5580 5580 5579 5576 5576 5574 5571 5569 5567 5565 5563 5559 5554 5552 5551
5562 5567 5571 5575 5578 5579 5580 5580 5581 5582 5582 5583 5583 5583 5584 5584 5583 5583 5583 5583 5582 5582 5582 5582 5580 5576 5572 5570 5574 5572 5568 5566 5563 5561 5557 5553 5550 5549
5572 5575 5578 5580 5582 5583 5584 5584 5584 5585 5586 5586 5586 5586 5586 5586 5586 5585 5585 5584 5584 5583 5583 5583 5581 5578 5573 5571 5572 5573 5571 5566 5562 5558 5556 5553 5550 5548
5582 5584 5586 5587 5587 5588 5588 5588 5589 5589 5589 5589 5589 5589 5589 5588 5587 5588 5587 5586 5585 5584 5583 5582 5583 5582 5580 5576 5572 5572 5572 5569 5563 5557 5553 5548 5544 5541
5589 5590 5592 5592 5592 5593 5593 5593 5593 5592 5592 5591 5592 5591 5591 5590 5589 5588 5588 5587 5586 5586 5585 5585 5585 5582 5578 5574 5571 5570 5570 5568 5564 5558 5552 5546 5537 5532
5594 5595 5596 5597 5598 5598 5598 5597 5596 5596 5595 5595 5594 5593 5593 5591 5591 5590 5589 5589 5588 5586 5585 5584 5582 5580 5577 5574 5571 5569 5567 5564 5560 5555 5550 5546 5540 5534